www.pogodaiklimat.ru

ПОГОДА в Смитфилде, NC

  • Прогноз погоды в Смитфилде
  • Монитор погоды в Смитфилде
  • Климат в Смитфилде

АРХИВ ПОГОДЫ в Смитфилде

Время (UTC), дата Ветер
(напр.,м/с)
 
Видим.   Явления Облачность Т
(С)
Тd
(С)
f
(%)
Тe
(С)
Тes
(С)
Комфортность

P
(гПа)

Po
(гПа)
Тmin
(С)
Tmax
(С)
R
(мм)
SD
(см)
07:45 26.03 С  5
{9} 
16 км  слабый дождь  10/10 180 м  +11.0  +11.0  100  +8  +8      1008.1         
08:05 26.03 С  7
{10} 
16 км  дождь  10/10 240 м  +10.0  +10.0  100  +6  +6      1008.4         
08:25 26.03 С  5
{10} 
16 км  слабый дождь  10/10 240 м  +10.0  +9.0  93  +6  +6      1009.1         
08:45 26.03 С  8
{13} 
16 км  слабый дождь  10/10 300 м  +8.0  +8.0  100  +3  +3      1009.8         
09:05 26.03 СВ  6
{11} 
16 км  слабая морось  10/10 360 м  +7.0  +7.0  100  +2  +2      1010.1         
09:25 26.03 СВ  5
{8} 
16 км  слабая морось  10/10 390 м  +7.0  +7.0  100  +2  +2      1010.8         
09:45 26.03 С  16 км    10/10 450 м  +7.0  +7.0  100  +2  +2      1010.8         
10:05 26.03 С  6
{8} 
16 км    10/10 540 м  +7.0  +6.0  93  +2  +2      1011.5         
10:25 26.03 СВ  16 км    10/10 540 м  +7.0  +7.0  100  +2  +2      1011.5         
10:45 26.03 С  16 км    10/10 540 м  +7.0  +7.0  100  +2  +2      1012.1         
11:05 26.03 С  16 км    10/10 480 м  +7.0  +7.0  100  +3  +3      1012.8         
11:25 26.03 С  5
{9} 
16 км    10/10 480 м  +7.0  +7.0  100  +2  +2      1013.2         
11:45 26.03 С  5
{8} 
16 км    10/10 480 м  +8.0  +7.0  93  +4  +4      1013.5         
12:05 26.03 СВ  16 км    10/10 540 м  +8.0  +6.0  87  +4  +4      1013.8         
12:25 26.03 С  7
{9} 
16 км    10/10 540 м  +8.0  +6.0  87  +3  +3      1014.2         
12:45 26.03 СВ  4
{8} 
16 км    10/10 540 м  +8.0  +6.0  87  +4  +4      1014.5         
13:05 26.03 СВ  6
{8} 
16 км    10/10 540 м  +8.0  +6.0  87  +4  +4      1014.8         
13:25 26.03 СВ  6
{10} 
16 км    10/10 540 м  +8.0  +6.0  87  +3  +3      1015.2         
13:45 26.03 СВ  6
{10} 
16 км    10/10 540 м  +8.0  +6.0  87  +4  +4      1015.5         
14:05 26.03 СВ  5
{8} 
16 км    10/10 540 м  +8.0  +6.0  87  +4  +4      1015.5         
14:25 26.03 С  4
{9} 
16 км    8/8 540 м  +10.0  +6.0  76  +7  +8      1015.8         
14:45 26.03 СВ  7
{9} 
16 км    10/10 570 м  +10.0  +6.0  76  +6  +6      1015.8         
15:05 26.03 С  6
{8} 
16 км    10/10 720 м  +10.0  +5.0  71  +6  +6      1015.8         
15:25 26.03 СВ  6
{11} 
16 км    8/8 810 м  +11.0  +4.0  62  +8  +9      1015.8         
15:45 26.03 СВ  8
{11} 
16 км    5/5 1020 м  +11.0  +2.0  54  +8  +8      1015.8         
16:05 26.03 С  8
{11} 
16 км    ясно  +12.0  0.0  44  +9  +11      1015.8         
16:25 26.03 С  7
{11} 
16 км    ясно  +12.0  0.0  44  +9  +12      1015.8         
16:45 26.03 С  7
{9} 
16 км    ясно  +12.0  +1.0  47  +9  +12      1015.8         
17:05 26.03 С  16 км    ясно  +13.0  +1.0  44  +10  +13      1015.8         
17:25 26.03 С  7
{8} 
16 км    ясно  +13.0  0.0  41  +11  +14      1015.8         
17:45 26.03 СВ  6
{9} 
16 км    ясно  +13.0  0.0  41  +11  +16      1015.5         
18:05 26.03 С  6
{10} 
16 км    ясно  +13.0  0.0  41  +11  +15      1015.2         
18:25 26.03 С  6
{12} 
16 км    ясно  +14.0  0.0  38  +12  +15      1015.2         
18:45 26.03 С  6
{8} 
16 км    ясно  +14.0  0.0  38  +12  +16      1015.2         
19:05 26.03 С  5
{8} 
16 км    ясно  +14.0  0.0  38  +12  +16      1015.2         
19:25 26.03 С  7
{8} 
16 км    ясно  +14.0  0.0  38  +12  +14      1015.2         
19:45 26.03 С  6
{7} 
16 км    ясно  +14.0  0.0  38  +12  +15      1015.2         
20:05 26.03 С  6
{8} 
16 км    ясно  +15.0  0.0  36  +13  +15      1015.5         
20:25 26.03 С  7
{10} 
16 км    ясно  +14.0  0.0  38  +12  +13      1015.8         
20:45 26.03 С  4
{8} 
16 км    ясно  +14.0  -2.0  33  +13  +16      1015.8         
21:05 26.03 С  7
{8} 
16 км    ясно  +13.0  -2.0  35  +11  +11      1016.2         
21:25 26.03 С  4
{8} 
16 км    ясно  +13.0  -3.0  33  +11  +12      1016.5         
21:45 26.03 СВ  16 км    ясно  +13.0  -3.0  33  +11  +12      1016.5         
22:05 26.03 СВ  16 км    ясно  +12.0  -4.0  32  +11  +11      1016.9         
22:25 26.03 СВ  16 км    ясно  +11.0  -4.0  35  +9  +9      1017.2         
22:45 26.03 СВ  16 км    ясно  +10.0  -3.0  40  +9  +9      1017.5         
23:05 26.03 СВ  16 км    ясно  +10.0  -3.0  40  +10  +10      1017.9         
23:25 26.03 СВ  16 км    ясно  +9.0  -3.0  43  +8  +8      1017.9         

 

Местоположение метеостанции Johnston County Airport: широта 35.5408 долгота -78.3903 высота над уровнем моря 50 м.

В архиве по умолчанию представлена погода в Смитфилде за последние 1-2 суток. Обновление информации о фактической погоде в базе происходит ежечасно! Архивные данные за месяц целиком и за предыдущие месяцы Вы можете получить, выбрав интересующий диапазон дат из раскрывающегося списка и нажав кнопку "Ввод!".

Внимание! Архив погоды МЕТАР в базе сайта хранится не более 60 дней. Нет смысла пытаться выбрать более раннюю дату.

Внимание! Время в таблицах - всемирное. Для получения местного времени необходимо прибавить поправку, которая в Смитфилде равна -5 ч.

Ветер - указаны скорость ветра в м/с и направление, откуда дует ветер: С - северный, СВ - северо-восточный, В - восточный, ЮВ - юго-восточный, Ю - южный, ЮЗ - юго-западный, З - западный, СЗ - северо-западный.
Видимость - горизонтальная дальность видимости в метрах или километрах. При видимости от 1 до 10 км при отсутствии осадков обычно наблюдается дымка, при ухудшении видимости до 1 км и менее - туман. В сухую погоду видимость может ухудшаться дымом, пылью или мглою.
Атмосферные явления - указаны явления, наблюдавшиеся в указанный момент времени.
Облачность - указаны через наклонную черту верхняя и нижняя облачность в баллах и высота нижней границы облаков в метрах. Внимание: облачность, как и прочие метеорологические величины в США измеряются автоматическими метеостанциями. Указанные значения в баллах носят условный характер и показывают процент времени, в течение которого, в среднем, лазерный луч высотомера отражался от облаков обратно.
T - Температура воздуха - температура, измеренная на высоте 2 м над землей.
Td - Температура точки росы - температура, при понижении до которой содержащийся в воздухе водяной пар достигнет насыщения.
f - Относительная влажность воздуха - влажноcть воздуха, измеренная на высоте 2 м над землей.
Te - Эффективная температура - температура, которую ощущает одетый по сезону человек в тени. Характеристика душности погоды. При расчете учитывается влияние влажности воздуха и скорости ветра на теплоощущения человека.
Tes - Эффективная температура на солнце - температура, которую ощущает человек, с поправкой на солнечный нагрев. Характеристика знойности погоды. Зависит от высоты солнца над горизонтом, облачности и скорости ветра. Ночью, в пасмурную погоду, а также при ветре 12 м/с и более поправка равна нулю.
P - Атмосферное давление - приведенное к уровню моря атмосферное давление.
Po - Атмосферное давление - измеренное на уровне метеостанции атмосферное давление.
Tmin - Минимальная температура - минимум температуры воздуха на высоте 2 м над землей.
Tmax - Максимальная температура - максимум температуры воздуха на высоте 2 м над землей.
R - Количество осадков - Количество выпавших осадков за 3 или 6 часов, мм.
SD - Снежный покров - Высота снежного покрова, см.